Flag for Laos Weather past 2 weeks in Luang Prabang, Laos

Now
86 °F

Scattered clouds.


Feels Like: 99 °F
Forecast: 72 / 96 °F
Wind: 2 mph from Southeast

Location: Vientiane Airport

Current Time: Jul 23, 2014 at 5:19:22 PM

Latest Report: Jul 23, 2014 at 4:00 PM


Visibility: 5 mi

Pressure: 29.53 "Hg

Humidity: 79%

Dew point: 79 °F

Location of Luang PrabangLocation

Historic Weather in Luang Prabang — Graph

°F

Luang Prabang temperature yesterday

Maximum temperature yesterday: 90 °F (at 2:00 PM)
Minimum temperature yesterday: 75 °F (at 8:00 PM)
Average temperature yesterday: 83 °F

Past Weeks' High & Low Weather Summary

 TemperatureHumidityPressure
High91 °F (Jul 17, 4:00 PM)100% (Jul 10, 7:00 AM)29.77 "Hg (Jul 10, 7:00 AM)
Low75 °F (Jul 22, 8:00 PM)49% (Jul 17, 6:00 PM)29.47 "Hg (Jul 8, 4:00 PM)
Average83 °F83%29.65 "Hg
* Reported Jul 8 4:00 PM — Jul 23 4:00 PM, Luang Prabang, Weather by CustomWeather, © 2014

Note: Actual official high and low records may vary slightly from our data, if they occured in-between our weather recording intervals... More about our weather records

Advertising

Luang Prabang weather history for previous 24 hours

 ConditionsComfort  
Time TempWeatherWind HumidityBarometerVisibility
4:00 PM
Jul 23
86 °FScattered clouds.2 mph79%29.53 "Hg5 mi
3:30 PM86 °FPartly sunny.2 mph75%29.56 "Hg5 mi
2:00 PM88 °FRain. Broken clouds.2 mph70%29.59 "Hg5 mi
1:00 PM88 °FScattered clouds.5 mph70%29.62 "Hg5 mi
12:00 PM86 °FScattered clouds.5 mph70%29.65 "Hg5 mi
11:30 AM86 °FScattered clouds.2 mph70%29.65 "HgN/A
11:00 AM86 °FScattered clouds.2 mph70%29.65 "HgN/A
10:30 AM82 °FScattered clouds.2 mph84%29.68 "Hg5 mi
10:00 AM82 °FScattered clouds.2 mph84%29.68 "Hg5 mi
9:30 AM81 °FPartly sunny.2 mph84%29.68 "Hg4 mi
9:00 AM81 °FPartly sunny.2 mph84%29.68 "Hg4 mi
8:30 AM79 °FFog.2 mph89%29.65 "Hg3 mi
8:00 AM79 °FFog.2 mph89%29.65 "Hg3 mi
7:00 AM75 °FFog.2 mph100%29.65 "Hg2 mi
6:00 AM77 °FFog.2 mph94%29.62 "Hg2 mi
11:00 PM
Jul 22
75 °FRain. Passing clouds.2 mph100%29.68 "Hg1 mi
10:30 PM75 °FLight rain. Passing clouds.2 mph100%29.68 "Hg1 mi
10:00 PM75 °FRain. Passing clouds.2 mph100%29.68 "Hg1 mi
9:30 PM75 °FRain. Passing clouds.5 mph100%29.65 "Hg1 mi
9:00 PM75 °FRain. Passing clouds.5 mph100%29.65 "Hg1 mi
8:30 PM75 °FThunderstorms. Passing clouds.7 mph100%29.65 "Hg1 mi
8:00 PM75 °FThunderstorms. Partly cloudy.7 mph100%29.65 "Hg1 mi
7:30 PM84 °FThunderstorms. Passing clouds.7 mph79%29.59 "Hg1 mi
7:00 PM86 °FPassing clouds.12 mph75%29.59 "Hg1 mi
6:30 PM88 °FFog.2 mph62%29.56 "Hg3 mi
5:30 PM90 °FPartly sunny.2 mph59%29.56 "HgN/A
5:00 PM90 °FPartly sunny.2 mph59%29.56 "HgN/A
Weather by CustomWeather, © 2014

See weather overviewHow to use our weather pages